Regional Weather Roundup
Issued by NWS

Home | Current Version | Previous Version | Graphics & Text | Print | Product List | Glossary On
Versions: 1 2 3 4 5 6 7 8 9 10 11 12 13 14 15 16 17 18 19 20 21 22 23 24 25 26 27 28 29 30 31 32 33 34 35 36 37 38 39 40 41 42 43 44 45 46 47 48 49 50
000
ASUS43 KMPX 291810
RWRMN
WEATHER ROUNDUP FOR MINNESOTA
NATIONAL WEATHER SERVICE TWIN CITIES/CHANHASSEN MN
100 PM CDT SAT AUG 29 2015


NOTE: "FAIR" INDICATES FEW OR NO CLOUDS BELOW 12,000 FEET WITH NO
SIGNIFICANT WEATHER AND/OR OBSTRUCTIONS TO VISIBILITY. N/A MEANS
CURRENT SKY AND/OR WEATHER CONDITIONS ARE NOT AVAILABLE.

MNZ060>063-068>070-291900-
   Twin Cities Metro

CITY           SKY/WX    TMP DP  RH WIND       PRES   REMARKS
TWIN CITIES    PTSUNNY   67  59  75 SE5       30.06F
6HR MIN TEMP:  57; 6HR MAX TEMP:  67;

ST PAUL        SUNNY     67  60  78 E5        30.07S
CRYSTAL        SUNNY     69  60  73 S6        30.05F
BLAINE         MOSUNNY   72  63  73 CALM      30.06S
LAKEVILLE      PTSUNNY   66  61  82 S3        30.07S
EDEN PRAIRIE   CLOUDY    66  59  78 SE5       30.06F
6HR MIN TEMP:  57; 6HR MAX TEMP:  66;

SOUTH ST PAUL  MOSUNNY   66  58  76 CALM      30.07S
LAKE ELMO      CLOUDY    64  61  88 CALM      30.08S
$$
MNZ001>005-007-008-013>017-022>024-027-028-291900-
   Northwest Minnesota

CITY           SKY/WX    TMP DP  RH WIND       PRES   REMARKS
BEMIDJI        PTSUNNY   72  64  75 S6        29.98F
HALLOCK        CLOUDY    70  66  88 SE13      29.90F
ROSEAU         CLOUDY    70  64  83 S8        29.94F
WARROAD        CLOUDY    70  66  88 S7        29.95F
THIEF RVR FALL MOSUNNY  N/A N/A N/A S9        29.93F
CROOKSTON      MOSUNNY   73  66  78 S9        29.93F
FOSSTON        CLOUDY    75  63  64 S9        29.97S
DETROIT LAKES  PTSUNNY   75  64  69 S9        30.00F
MOORHEAD       MOSUNNY   77  66  69 S10       29.95F
PARK RAPIDS    MOSUNNY   75  62  64 S9        30.00F
MAHNOMEN       FAIR      75  66  72 S13       29.97S
$$
MNZ006-009>011-018-025>026-291900-
   North Central Minnesota

CITY           SKY/WX    TMP DP  RH WIND       PRES   REMARKS
BAUDETTE       CLOUDY    70  65  84 S7        29.96F
FLAG ISLAND    CLOUDY    66  66 100 S5        29.95R
INTL FALLS     CLOUDY    72  65  78 S5        29.98S
6HR MIN TEMP:  65; 6HR MAX TEMP:  74;

WASKISH        CLOUDY    72  64  78 SE3       29.98S
BIG FORK       PTSUNNY   72  63  73 S5        30.00F
LONGVILLE      MOSUNNY   73  63  68 S8        30.00F
GRAND RAPIDS     N/A     70  61  73 S6        30.02F
CRANE LAKE     CLOUDY    68  64  88 S2        30.02S
ORR            CLOUDY    66  59  77 S6        29.99F
COOK           CLOUDY    66  61  82 SW3       30.02F
WALKER         FAIR      73  63  72 SW8       30.00S
$$
MNZ012-019>021-037-291900-
   Northeast Minnesota

CITY           SKY/WX    TMP DP  RH WIND       PRES   REMARKS
DULUTH         CLOUDY    72  59  63 W6        30.03F
6HR MIN TEMP:  58; 6HR MAX TEMP:  73;

ELY            CLOUDY    66  61  82 S7        30.03S
HIBBING        CLOUDY    68  60  75 S6        30.02F
EVELETH        PTSUNNY   66  59  77 SW5       30.04F
DULUTH HARBOR  MOSUNNY   72  61  68 SW6       30.03S
TWO HARBORS    CLOUDY    75  64  69 W6        30.01F
SILVER BAY     MOSUNNY   75  63  64 W5        29.99F
GRAND MARAIS     N/A     56  52  86 W5        29.99F
G MARAIS ARPRT CLOUDY    70  59  68 CALM      30.03F
$$
MNZ029>031-032-039>041-046>048-054>057-064-291900-
   West Central Minnesota

CITY           SKY/WX    TMP DP  RH WIND       PRES   REMARKS
FERGUS FALLS   PTSUNNY   73  64  73 S14       29.98F
WHEATON        PTSUNNY   73  64  73 S12       30.00F
MORRIS         MOSUNNY   73  63  68 S12       30.00F
ALEXANDRIA     MOSUNNY   70  59  68 S13       30.04F
ELBOW LAKE     FAIR      71  62  74 S12       30.00F
WADENA         MOSUNNY   73  63  68 SW6       30.01S
GLENWOOD       SUNNY     72  59  64 S13       30.05S
APPLETON       SUNNY     75  57  53 S9        30.01F
BENSON         SUNNY     73  57  56 SW9       30.03F
ORTONVILLE     MOSUNNY   73  64  73 S7        30.01F
MADISON        SUNNY     73  63  68 S7        30.02F
WILLMAR        FAIR      72  61  68 S7        30.06F
$$
MNZ033>034-036-042>043-049>051-058-059-291900-
   Central Minnesota

CITY           SKY/WX    TMP DP  RH WIND       PRES   REMARKS
ST CLOUD       SUNNY     71  60  68 VRB6      30.04F
6HR MIN TEMP:  52; 6HR MAX TEMP:  71;

SAUK CENTRE    FAIR      72  60  65 S10       30.04F
PAYNESVILLE    SUNNY     71  59  66 E8        30.06S
AITKIN         CLOUDY    72  61  68 S8        30.02F
PINE RIVER     MOSUNNY   73  63  68 S5        30.04F
BRAINERD       SUNNY     71  60  68 SW8       30.03F
STAPLES        SUNNY     73  61  64 SW7       30.02S
LONG PRAIRIE   FAIR      72  59  64 S10       30.04F
LITTLE FALLS   SUNNY     70  55  60 S6        30.04S
LITCHFIELD     SUNNY     72  64  78 SE7       30.06F
BUFFALO        CLOUDY    64  58  82 SE6       30.07F
MAPLE LAKE     SUNNY     70  64  82 SE5       30.07S
$$
MNZ037-044-045-052-053-291900-
   East Central Minnesota

CITY           SKY/WX    TMP DP  RH WIND       PRES   REMARKS
PRINCETON      SUNNY     73  61  64 S6        30.05S
MORA           SUNNY     70  59  68 SW7       30.06F
CAMBRIDGE      SUNNY     73  59  60 S6        30.04S
RUSH CITY      SUNNY     71  61  70 SE5       30.05F
MOOSE LAKE     CLOUDY    70  59  68 SW5       30.03S
HINCKLEY       FAIR      72  61  68 S7        30.05F
CLOQUET        CLOUDY    70  57  64 SW7       30.04F
MCGREGOR       CLOUDY    70  57  64 S8        30.04F
$$
MNZ071>073-080-081-089-090-097-098-291900-
   Southwest Minnesota

CITY           SKY/WX    TMP DP  RH WIND       PRES   REMARKS
MONTEVIDEO     SUNNY     75  63  64 SW9       30.05F
GRANITE FALLS  SUNNY     72  62  72 SE8       30.06F
CANBY          SUNNY     75  61  61 S8        30.04F
MARSHALL       SUNNY     73  59  60 SW8       30.06F
REDWOOD FALLS  SUNNY     68  60  75 S8        30.05F
OLIVIA         SUNNY     68  59  73 S7        30.04F
PIPESTONE      MOSUNNY   72  63  73 SW5       30.07F
WINDOM         SUNNY     70  61  73 CALM      30.07F
WORTHINGTON    SUNNY     68  59  73 S7        30.08F
JACKSON        SUNNY     68  61  77 S5        30.08F
TRACY          SUNNY     73  63  71 S8        30.06F
SLAYTON        SUNNY     71  63  73 CALM      30.08F
$$
MNZ065>067-074>077-082>085-091>093-291900-
   South Central Minnesota

CITY           SKY/WX    TMP DP  RH WIND       PRES   REMARKS
MANKATO        CLOUDY    63  57  82 SE5       30.07F
NEW ULM        MOSUNNY   63  63 100 SE6       30.07S
ST JAMES       CLOUDY    66  63  88 CALM      30.08S
FAIRMONT       CLOUDY    64  57  77 CALM      30.07F
GLENCOE        CLOUDY    64  61  91 CALM      30.07S
FARIBAULT      MOSUNNY   70  63  78 CALM      30.06F
OWATONNA       MOSUNNY   70  61  73 CALM      30.06F
WASECA         CLOUDY    64  59  82 MISG      30.08F
ALBERT LEA     MOSUNNY   68  63  83 SE3       30.06F
$$
MNZ078>079-086>088-094>096-291900-
   Southeast Minnesota

CITY           SKY/WX    TMP DP  RH WIND       PRES   REMARKS
ROCHESTER      MOSUNNY   71  63  75 E3        30.07F
6HR MIN TEMP:  58; 6HR MAX TEMP:  71;

RED WING       MOSUNNY   70  59  68 CALM      30.05F
STANTON        MOSUNNY   69  61  76 CALM      30.05F
DODGE CENTER   SUNNY     70  61  73 E3        30.06F
WINONA         PTSUNNY   70  63  78 CALM      30.06F
AUSTIN         MOSUNNY   72  63  73 E5        30.05F
PRESTON        MOSUNNY   67  60  77 NE3       30.07S
$$
ABBREVIATIONS USED IN REMARKS
   TC - TEMPERATURES IN CELSIUS
  WCI - WIND CHILL INDEX
   HX - HEAT INDEX
  VSB - VISIBILITY
$$



USA.gov is the U.S. government's official web portal to all federal, state and local government web resources and services.